GFSSW_925_spd_009.txt.gz
Wind_Speed
2 1 0 2 4 5 4 4 4 4 4 4 4 5 7 9 7 5 5 3 3 4 5 6 1 2 2 3 3 2 4 3 5 6 6 4 5 3 1 8 3 5 7 4 27
6 4 2 1 1 1 2 3 3 4 3 3 5 7 8 10 8 8 5 5 4 2 3 6 3 4 3 2 2 4 3 9 5 5 5 5 5 8 5 4 3 3 4 8 30
8 5 4 2 1 1 1 2 2 2 3 4 6 8 9 9 3 5 6 6 3 2 2 4 3 1 2 1 1 3 5 4 3 3 4 5 3 5 7 5 8 12 8 14 16
7 7 5 5 4 3 2 1 2 3 4 6 7 9 10 2 4 1 3 4 3 2 3 2 1 3 1 3 3 2 5 3 2 3 4 5 5 5 8 9 6 12 13 19 13
8 7 6 6 5 4 3 3 3 4 5 6 8 10 3 2 7 3 2 4 3 2 1 2 1 2 3 3 1 3 3 3 3 4 3 2 7 9 9 8 2 7 8 17 16
7 7 7 7 6 6 5 5 5 5 6 7 8 10 2 3 1 2 3 4 4 2 0 1 2 3 3 4 4 3 5 4 5 4 4 4 5 4 7 7 6 9 13 15 16
3 4 5 5 6 6 5 5 5 6 6 6 6 7 0 10 3 3 3 2 3 3 1 1 0 1 1 4 4 1 3 4 5 3 5 5 9 12 9 5 9 11 14 15 15
3 3 3 4 5 5 6 6 6 6 6 6 6 3 6 3 4 7 5 5 4 4 3 4 1 1 2 5 6 0 2 2 4 6 6 8 14 9 9 9 13 12 12 14 16
4 4 5 5 6 7 8 8 6 5 6 5 2 3 8 4 4 9 9 3 3 3 3 4 1 1 1 4 5 4 4 7 8 10 4 8 9 7 6 12 13 13 14 15 15
6 4 5 6 7 9 10 8 3 3 2 1 1 3 4 2 3 2 8 3 0 1 4 2 4 0 2 3 8 7 6 5 6 3 4 5 15 13 2 8 17 14 13 14 16
12 8 6 6 7 8 9 2 5 3 1 6 3 3 2 1 4 4 5 4 2 5 3 2 2 11 14 11 3 4 4 6 5 6 8 10 18 22 13 8 14 13 14 15 18
14 12 9 7 7 7 4 4 3 3 6 7 7 5 9 4 3 2 6 4 3 5 2 3 8 9 3 6 6 5 6 9 8 8 8 10 20 18 15 9 18 18 17 20 20
14 14 12 8 3 2 3 3 1 2 1 6 4 4 5 10 4 4 8 3 4 5 7 7 8 2 6 7 6 12 14 8 13 7 5 4 20 9 11 16 13 17 23 18 23
14 14 15 8 2 1 2 4 2 1 4 4 1 2 2 4 3 4 16 7 2 6 5 6 12 16 6 6 12 15 8 13 12 3 9 4 15 7 6 14 13 18 17 19 20
12 12 11 7 3 2 5 7 4 1 4 0 1 1 1 4 3 1 5 2 6 4 5 9 4 5 7 15 6 7 7 9 7 6 2 5 4 2 3 7 11 13 19 19 20
12 10 8 5 4 4 9 7 1 5 4 2 2 3 2 2 3 2 1 1 1 4 5 14 4 5 8 4 9 3 3 1 3 4 7 10 8 28 11 13 11 12 13 14 18
11 5 4 4 1 8 8 3 5 3 5 4 5 4 1 3 3 3 3 3 4 3 5 5 6 6 10 13 3 4 5 4 4 2 15 9 9 22 4 6 9 15 17 16 9
8 7 10 10 4 6 3 5 1 3 5 4 6 4 4 3 3 3 1 3 6 4 3 6 12 7 3 13 11 11 13 9 6 7 15 5 10 13 10 10 9 13 16 15 14
9 12 15 15 9 4 5 4 1 4 6 8 8 4 3 2 6 8 2 4 4 3 4 6 7 7 3 5 7 5 7 15 11 21 5 12 16 13 11 9 11 12 11 16 19
5 6 17 14 9 5 5 1 3 3 5 3 2 4 4 7 7 9 2 3 6 7 5 6 16 7 6 3 3 6 4 3 2 9 21 14 6 12 6 7 11 11 13 12 11
4 4 14 14 6 5 3 1 3 3 8 6 3 5 2 4 3 3 6 4 8 10 5 5 5 11 5 3 13 10 6 4 4 7 17 19 14 7 14 16 17 12 10 11 11
4 3 15 13 4 2 3 5 5 5 6 4 3 2 2 5 4 5 7 2 7 9 6 6 7 17 24 20 16 16 9 3 4 15 6 14 24 3 4 8 7 10 11 11 8
3 1 11 7 4 3 5 5 3 5 4 5 4 6 5 3 5 4 6 7 8 11 4 3 2 9 17 7 7 6 11 15 15 7 14 14 15 12 21 27 24 23 19 13 9
3 3 4 5 3 5 3 4 5 3 2 3 4 4 5 1 4 6 11 6 11 12 20 13 6 13 16 19 15 25 26 22 14 8 14 16 22 32 30 24 18 25 28 23 12
4 1 2 4 4 2 2 2 3 4 4 4 5 4 3 4 10 8 14 16 6 18 6 4 14 14 20 23 23 26 26 21 24 20 15 27 25 26 22 18 10 15 19 24 26
3 3 4 2 3 4 2 2 2 0 2 4 5 6 7 6 11 20 10 9 8 8 10 3 16 20 24 24 24 26 26 27 24 29 25 27 27 22 24 11 14 14 16 20 20
5 3 3 2 1 2 3 4 4 4 7 6 7 11 12 17 9 10 14 15 16 17 20 12 8 8 20 24 20 15 25 24 23 27 20 17 7 9 13 19 16 16 17 13 17

GFSSW_925_spd_012.txt.gz
Wind_Speed
3 2 1 2 3 4 4 3 4 4 5 5 6 7 9 11 10 5 4 3 3 7 6 7 4 4 3 3 3 3 4 3 5 6 5 3 6 2 1 6 3 7 5 2 26
6 4 2 2 0 0 1 2 3 3 4 5 6 8 10 11 8 6 4 4 4 5 4 8 4 6 3 2 2 4 3 8 5 5 4 3 6 8 5 3 4 3 5 3 28
6 5 5 4 3 3 2 2 2 4 5 6 8 9 10 8 3 3 2 5 3 3 3 4 3 1 2 1 1 3 5 4 4 5 4 3 3 7 8 5 9 13 9 11 18
8 8 7 7 7 5 4 4 4 5 6 7 8 10 9 3 2 3 2 2 2 1 3 4 3 2 0 3 2 2 6 5 3 3 3 4 3 6 9 11 5 12 6 11 14
7 7 8 7 7 5 5 4 4 5 5 6 8 11 3 3 5 2 1 1 1 1 2 2 2 1 2 3 2 3 4 4 7 6 5 2 7 9 9 11 3 3 9 14 17
5 5 4 4 3 3 3 2 3 4 5 6 7 8 2 2 3 1 1 1 0 1 2 1 1 1 3 3 2 3 4 6 4 4 4 4 6 3 5 6 9 7 11 13 19
3 2 2 2 2 2 2 3 3 4 4 5 6 6 2 8 2 1 0 1 2 1 1 1 1 2 3 5 5 4 6 7 4 3 6 4 10 15 6 4 9 10 10 11 16
4 4 4 5 5 5 5 5 5 5 4 3 5 3 5 3 4 3 3 2 2 3 2 3 1 0 1 4 7 4 2 3 4 3 4 7 15 13 6 8 13 12 10 11 14
5 5 5 5 5 6 6 7 7 5 4 3 1 3 7 5 2 3 6 1 2 1 1 3 2 1 2 4 5 6 5 5 9 8 2 8 8 8 1 8 11 10 12 12 15
8 6 5 5 6 6 8 3 2 2 2 2 2 3 3 2 1 0 6 3 2 2 4 5 5 2 3 4 6 6 5 5 6 3 2 7 15 18 8 5 11 11 9 9 12
12 11 8 6 6 7 4 2 4 3 1 5 3 2 2 3 1 2 2 4 2 6 2 3 3 8 9 7 2 2 3 6 6 4 4 8 17 18 18 6 12 12 12 14 18
11 11 10 8 5 3 4 5 3 1 5 1 3 5 8 2 4 2 5 4 2 2 2 5 7 8 4 3 6 7 7 13 8 7 7 10 21 16 16 12 15 17 16 19 16
12 11 12 8 3 5 10 7 4 3 2 5 3 3 3 7 5 5 7 3 3 4 6 7 8 5 6 2 5 8 7 12 13 10 7 7 26 12 10 12 9 13 20 18 18
11 10 13 5 4 3 4 7 4 2 4 5 4 3 1 4 1 1 8 4 1 5 5 6 5 5 4 7 9 9 11 14 10 2 9 4 18 3 6 12 7 13 16 19 19
7 6 7 8 3 3 4 5 2 2 4 3 2 2 2 1 3 2 2 1 4 4 4 8 3 4 6 8 7 10 7 7 6 5 4 5 4 17 4 5 9 11 13 16 18
7 4 3 3 5 4 8 3 1 5 0 3 3 5 5 1 3 3 2 1 2 3 5 12 3 5 8 7 8 1 2 1 4 4 6 8 8 27 5 8 7 7 10 13 13
5 6 8 6 2 6 7 3 5 4 5 7 4 6 3 5 5 5 4 3 2 7 3 4 6 4 4 5 4 4 4 4 4 2 11 10 9 27 5 2 5 10 13 16 10
14 15 16 16 8 6 3 5 2 4 4 4 5 5 2 7 4 6 3 5 6 2 3 4 7 3 4 1 4 3 8 5 6 4 7 3 9 9 2 7 6 10 12 10 15
11 12 24 21 12 7 5 5 2 2 5 7 8 5 4 5 5 8 5 2 6 8 3 6 6 9 23 9 2 3 3 6 11 22 12 14 17 14 10 11 9 12 10 13 13
3 4 19 19 11 5 5 4 4 3 4 3 2 4 4 7 8 8 3 5 3 7 2 4 14 8 3 9 5 5 3 6 3 9 20 12 7 12 13 16 19 20 20 20 20
4 4 19 16 7 6 4 2 2 3 7 4 2 4 4 4 3 2 6 1 4 8 4 3 5 12 4 3 8 12 13 7 6 8 9 11 9 3 8 11 18 20 20 15 16
4 3 21 11 4 2 3 3 7 5 6 5 4 3 3 5 3 3 4 3 8 7 5 3 5 15 21 16 17 15 18 6 4 6 5 7 10 6 18 25 26 24 20 27 22
3 1 13 8 4 3 4 4 4 6 5 6 5 4 3 2 5 3 4 3 7 10 7 5 3 10 17 3 3 5 11 16 13 7 17 14 11 22 30 34 28 23 13 16 21
3 3 5 6 2 4 3 2 4 5 3 3 2 5 5 2 5 5 5 5 15 13 19 13 4 10 16 18 18 18 20 21 21 14 21 20 22 22 31 28 21 22 19 16 18
4 1 2 3 4 2 1 1 2 5 3 6 4 6 4 4 4 5 8 18 4 11 5 6 8 13 20 20 23 27 27 25 24 23 23 29 30 26 26 30 20 13 17 19 19
3 3 3 1 1 2 3 2 2 3 4 4 1 6 6 3 7 19 14 6 9 6 7 4 15 18 23 21 23 23 26 26 24 24 24 24 27 17 16 18 15 15 17 20 19
6 3 3 4 2 3 1 2 4 2 3 2 4 6 8 13 10 8 13 14 15 18 18 8 5 2 18 17 16 12 15 9 10 15 20 16 5 12 15 20 21 22 18 18 16

GFSSW_925_spd_015.txt.gz
Wind_Speed
3 2 2 3 3 3 3 2 2 3 4 5 5 7 8 10 8 4 3 1 2 8 7 5 5 4 3 3 3 2 2 4 5 6 4 4 7 3 1 4 4 7 3 1 11
5 4 3 3 2 2 1 1 3 4 5 5 6 8 9 10 6 3 1 1 3 7 4 8 4 6 3 2 2 3 3 8 4 4 4 4 7 7 5 6 5 5 8 3 20
5 5 5 5 4 4 4 4 5 5 5 6 7 8 9 7 2 3 3 3 2 4 3 3 3 2 2 1 0 2 4 3 3 6 3 2 2 5 6 6 8 13 12 12 21
5 5 6 5 5 5 5 4 5 5 5 6 7 9 5 3 3 3 2 0 2 3 2 3 4 3 3 3 2 3 4 3 4 2 1 3 0 4 10 11 3 11 3 14 17
4 4 4 4 4 4 4 3 3 2 3 5 7 8 2 3 2 2 1 2 2 3 4 2 3 2 1 2 3 2 3 3 7 7 5 2 6 7 6 14 7 2 6 15 18
4 3 2 2 2 2 1 1 0 1 3 4 6 7 2 2 1 1 1 2 3 4 3 3 2 2 1 2 1 2 4 7 5 5 4 5 6 3 4 7 11 10 12 14 19
3 2 2 2 2 2 2 2 3 3 3 3 4 5 3 4 2 0 2 3 4 3 2 2 1 2 1 3 3 3 6 6 5 4 6 4 10 15 11 6 10 13 16 15 17
3 3 3 3 3 3 3 3 4 4 4 3 3 3 3 1 3 2 1 1 2 2 1 3 1 1 1 2 4 4 1 5 3 2 3 6 15 13 6 9 17 16 14 13 16
7 5 4 3 3 3 4 5 5 4 3 2 1 2 5 4 1 1 3 1 2 3 4 1 3 2 3 2 3 4 5 4 9 3 3 7 8 5 5 3 12 13 14 13 15
9 7 6 5 4 4 6 2 3 4 3 2 1 2 3 2 2 2 4 3 5 3 4 6 4 2 2 3 5 3 4 4 6 2 3 8 17 20 17 10 16 18 16 13 16
9 8 8 7 5 5 1 4 4 3 2 0 1 0 2 4 2 3 2 3 3 6 2 3 1 6 9 6 3 2 4 10 16 12 9 18 22 20 21 10 15 17 18 17 20
8 8 8 6 3 3 4 5 3 2 2 1 3 4 6 1 4 2 3 2 2 2 1 3 8 6 3 4 6 7 9 14 12 11 7 12 26 20 18 25 20 20 20 21 20
6 6 8 3 6 10 12 5 2 1 3 4 1 1 2 5 3 4 5 2 2 3 4 5 1 6 4 3 5 4 7 8 13 12 8 11 19 10 8 15 16 16 20 20 19
3 4 6 5 4 4 4 5 1 0 4 7 5 3 1 2 1 0 4 2 0 2 4 5 3 2 3 7 7 6 12 15 11 5 6 5 16 7 11 16 5 12 16 17 16
2 1 4 5 7 3 2 4 1 2 3 4 3 2 3 1 3 5 1 1 4 4 3 6 2 3 4 6 5 7 1 4 3 5 6 6 6 19 5 9 12 13 12 11 15
3 3 4 5 6 4 6 0 2 5 1 4 5 6 6 5 5 6 3 1 1 1 3 7 3 4 5 2 6 2 2 2 2 2 8 10 10 27 6 3 6 7 7 9 10
17 15 11 8 3 7 6 2 4 5 5 7 4 6 4 6 6 7 5 6 4 7 4 5 4 3 2 1 4 2 3 4 3 3 7 3 9 21 7 18 7 10 19 21 21
19 22 19 16 8 6 1 4 6 0 2 3 4 5 4 7 4 8 4 4 9 5 3 4 5 2 2 3 5 6 4 2 7 8 14 6 12 12 3 7 13 13 15 17 19
5 9 23 21 10 3 5 6 2 1 3 5 5 5 4 4 5 7 5 3 6 8 4 6 5 6 19 6 5 3 1 4 8 18 14 13 18 14 17 9 17 19 20 21 18
0 3 18 22 10 3 5 5 3 2 3 2 2 3 3 6 6 6 3 4 3 8 3 2 12 9 3 6 6 5 5 6 3 16 22 18 22 16 16 17 22 27 27 24 20
3 3 21 16 6 6 4 2 3 2 5 4 1 3 3 4 3 2 3 7 7 8 3 3 4 8 13 4 9 11 10 10 10 10 15 20 11 2 19 18 24 32 27 22 19
4 3 21 10 4 2 3 2 3 4 7 5 4 4 3 4 2 2 2 4 8 6 5 5 5 11 20 19 18 11 4 7 5 12 16 13 19 22 19 30 33 29 25 26 22
3 1 12 8 4 3 3 3 4 6 5 5 4 5 4 2 4 2 2 6 8 10 7 4 3 10 7 2 2 9 17 17 15 9 17 15 14 23 32 27 22 23 26 22 24
3 3 5 6 2 5 2 3 3 5 4 4 4 6 5 4 3 4 4 4 15 11 18 10 5 11 12 17 15 18 20 19 18 12 17 19 29 27 30 28 19 18 19 20 18
4 1 1 3 5 4 3 2 2 4 5 8 4 7 5 3 3 3 2 14 5 10 6 2 6 14 16 18 20 22 22 25 21 21 18 25 24 26 20 21 22 16 18 18 19
4 3 3 2 1 3 4 4 3 3 4 3 4 3 2 4 7 15 12 8 10 3 9 3 14 14 19 19 20 19 23 22 20 20 17 18 19 9 13 20 19 21 19 20 21
5 4 3 3 2 3 0 2 2 1 1 2 2 3 6 10 6 7 10 15 16 17 18 9 8 8 13 15 12 11 15 10 20 20 17 15 18 9 19 23 21 20 20 19 19

GFSSW_925_spd_021.txt.gz
Wind_Speed
1 1 1 4 6 6 6 4 2 1 1 2 3 4 5 6 3 2 2 3 2 6 5 3 2 2 3 2 3 3 5 11 14 15 14 11 8 13 4 11 8 7 12 3 6
4 2 2 3 3 4 3 2 1 1 1 2 3 5 6 5 3 4 2 2 4 5 4 4 3 3 2 2 2 5 8 11 8 10 11 14 14 12 15 13 14 12 13 5 7
3 2 3 4 4 4 4 3 3 2 1 2 4 6 6 2 6 5 4 2 4 5 4 3 3 3 3 2 4 3 9 9 8 7 11 13 15 14 15 17 17 17 14 14 15
3 3 3 3 4 4 4 4 2 2 1 3 5 8 4 4 0 3 4 4 5 5 4 3 3 3 3 6 3 9 13 11 9 9 10 13 15 18 14 18 17 19 10 15 13
4 3 2 2 2 2 2 2 1 0 2 4 6 8 3 5 6 4 4 6 5 4 4 4 5 3 6 4 7 13 13 10 12 12 15 16 17 19 18 19 19 15 15 12 16
3 2 2 2 1 1 1 1 1 1 2 4 5 7 5 4 2 2 2 4 4 4 3 4 4 5 8 7 8 8 12 17 18 17 16 17 19 16 17 13 13 14 16 18 18
1 1 1 1 2 2 2 2 2 2 3 4 5 6 4 6 1 1 1 2 3 3 3 3 4 5 6 7 4 11 16 17 18 15 8 8 15 15 15 11 14 17 17 16 17
1 0 1 2 2 2 3 3 4 3 3 4 5 4 4 1 0 1 1 1 1 2 2 3 3 6 5 7 8 11 11 11 1 4 1 3 19 17 9 7 13 13 14 14 15
2 1 1 2 3 3 3 4 4 3 2 2 3 5 5 1 2 1 1 3 2 1 2 3 4 5 4 7 11 11 10 13 13 4 2 6 17 13 11 16 18 20 20 19 20
2 2 2 2 2 2 2 2 4 4 1 3 4 4 3 3 3 2 1 2 3 3 4 3 4 6 7 7 9 15 17 18 18 14 11 20 25 25 24 21 21 21 20 19 18
2 1 2 2 2 2 7 4 5 4 0 5 4 3 5 2 1 2 1 2 3 4 7 2 6 9 12 12 14 14 15 19 19 18 18 18 20 25 24 21 21 19 18 15 14
2 1 2 1 3 5 3 3 5 4 5 5 3 1 2 3 2 3 2 4 3 7 5 7 10 7 6 6 8 12 16 19 18 13 19 20 25 28 26 19 8 8 7 9 13
3 1 1 7 9 4 4 3 2 3 2 4 3 4 3 2 3 4 4 3 6 7 5 9 11 2 6 8 12 14 16 18 18 20 21 19 17 9 12 11 8 20 22 22 19
2 1 4 9 3 4 3 2 2 2 5 4 2 3 1 1 2 3 2 3 4 6 7 9 4 3 9 13 12 15 6 12 17 15 10 17 10 13 7 10 19 18 19 19 20
3 3 6 3 4 0 2 3 2 3 4 3 4 1 2 3 2 3 2 3 7 9 4 2 7 11 12 10 8 12 10 15 17 17 18 16 8 3 9 10 14 15 17 18 20
6 6 8 3 4 2 4 1 2 4 2 4 2 3 3 5 3 3 1 2 4 7 9 13 10 5 9 12 8 11 13 19 20 11 8 12 11 6 5 10 13 12 14 16 21
12 7 3 2 2 4 2 4 5 4 3 4 2 5 3 5 2 5 3 10 8 8 2 12 1 5 7 11 5 7 15 7 6 6 7 6 9 12 9 17 15 15 18 22 24
10 10 10 9 4 2 4 5 5 4 5 2 3 3 3 9 3 6 7 1 12 12 9 6 3 2 9 7 8 15 8 6 8 9 16 22 11 8 7 16 13 19 20 22 22
4 3 6 11 5 2 5 4 6 5 4 6 2 3 3 1 6 6 7 5 6 11 8 6 4 4 12 6 7 6 7 9 11 19 17 11 15 17 6 22 28 30 27 25 23
0 2 7 12 4 5 4 5 4 5 5 3 3 4 3 6 5 6 2 5 3 7 8 4 9 8 2 7 10 8 6 6 6 7 11 12 20 17 17 28 30 30 30 28 26
3 3 8 7 4 4 1 5 7 6 4 5 3 2 2 4 5 5 3 4 2 5 6 8 7 4 10 11 12 13 13 8 9 9 9 16 13 13 29 22 28 27 26 25 21
2 1 12 8 1 3 4 4 2 3 4 4 4 5 3 3 4 3 2 2 3 6 7 4 6 9 17 16 9 8 9 1 4 11 15 16 25 23 21 28 24 25 24 22 22
2 2 8 6 1 4 6 5 5 2 5 2 2 4 2 2 4 2 2 5 1 6 6 7 2 7 5 5 5 4 8 9 16 15 23 17 17 23 26 24 25 25 23 21 22
1 1 3 6 4 8 8 4 4 4 4 3 2 0 2 3 2 4 4 1 1 7 9 6 9 12 10 15 17 21 22 21 20 13 21 19 29 26 25 25 24 22 23 23 22
4 3 2 3 5 6 4 2 5 2 2 1 2 1 3 3 6 4 2 6 7 2 5 4 9 13 16 18 20 23 23 23 24 24 23 26 28 26 24 22 22 23 22 23 24
2 2 4 4 2 3 1 3 2 2 2 1 3 1 4 5 6 8 10 9 7 3 2 6 9 14 18 19 20 24 23 25 24 25 26 26 27 24 22 22 22 21 23 26 24
5 2 3 0 1 2 2 4 4 1 2 2 1 5 7 7 8 10 10 11 12 12 12 11 6 8 10 10 19 18 12 12 18 22 21 24 25 22 21 21 21 22 25 26 24

GFSSW_925_spd_024.txt.gz
Wind_Speed
2 3 3 5 6 6 5 5 4 2 0 1 2 4 5 7 3 4 2 3 3 5 6 6 5 3 7 3 3 1 2 5 9 8 7 10 10 9 5 2 6 8 5 7 19
2 1 2 4 4 4 3 4 3 2 1 1 3 5 6 7 7 3 4 1 3 4 8 7 3 6 3 3 3 2 3 5 6 7 7 10 9 9 10 9 10 9 7 17 20
3 3 3 3 4 4 4 4 3 2 0 2 4 7 7 5 6 5 2 2 4 3 8 7 8 6 5 3 5 3 3 5 9 7 7 8 11 9 9 8 8 9 11 1 9
3 3 2 2 3 3 3 2 1 1 1 3 5 7 5 2 1 3 3 4 4 7 7 5 6 4 3 5 3 3 8 10 7 7 7 9 11 10 11 11 9 10 9 7 11
4 4 3 2 2 1 2 2 1 2 2 4 6 8 2 5 5 2 4 6 5 5 4 5 7 3 6 5 6 9 12 13 7 8 7 10 10 10 13 14 12 13 11 9 8
3 3 3 2 1 0 1 2 2 2 3 5 7 7 4 2 3 1 2 3 4 6 3 6 6 6 6 7 6 7 10 13 13 15 12 13 10 7 11 10 10 9 9 9 10
3 2 1 1 1 2 3 3 3 3 4 5 6 4 6 5 1 0 2 2 4 5 5 5 7 6 8 7 5 7 12 13 16 15 7 6 8 11 13 11 9 8 9 10 11
2 1 1 1 2 3 3 4 4 4 4 4 5 4 3 1 1 1 2 3 2 2 3 4 6 6 3 8 6 6 8 4 5 4 5 7 9 10 8 7 8 9 10 11 11
2 2 2 2 2 3 3 4 4 3 3 3 5 5 5 2 1 3 3 5 4 3 3 4 4 3 3 5 6 7 5 9 8 6 2 6 10 7 9 11 14 10 9 9 8
2 2 2 2 2 2 2 2 3 2 2 3 6 4 2 3 2 2 1 2 3 5 7 4 4 4 6 5 5 11 12 12 12 8 11 10 15 12 11 10 10 9 8 8 6
3 2 2 2 2 2 5 2 4 3 2 3 4 3 5 3 1 2 2 5 4 5 4 3 3 6 9 7 8 8 11 13 13 13 12 9 16 20 19 12 9 7 16 19 19
2 1 1 1 2 4 5 5 5 4 4 2 3 4 2 2 2 4 3 4 1 6 5 5 7 5 6 5 5 8 13 14 12 10 13 11 18 22 23 6 20 20 20 19 20
2 0 1 5 7 2 3 6 4 5 4 3 2 4 2 5 3 6 5 5 6 6 5 5 9 3 4 6 11 11 12 10 13 15 14 10 7 2 15 22 21 20 17 19 19
2 1 7 8 1 4 4 4 4 3 4 5 3 3 3 0 2 2 5 3 3 4 7 8 5 2 7 10 10 9 9 11 12 11 4 10 6 9 10 17 17 12 11 14 16
5 3 8 1 2 0 2 4 3 2 3 2 4 1 2 2 1 3 2 3 6 10 4 5 8 6 7 8 10 6 9 13 15 13 11 10 4 6 17 14 12 11 14 13 13
6 7 8 1 3 1 2 2 2 3 1 4 2 2 5 4 4 1 0 1 7 8 9 12 9 4 2 9 8 9 11 17 17 8 5 9 10 4 4 13 10 11 12 14 11
7 5 2 2 2 3 2 4 3 3 2 4 2 3 4 5 1 4 3 10 6 8 5 11 1 6 7 9 2 9 11 4 2 2 5 14 6 4 16 15 16 13 14 16 15
6 7 6 6 2 2 3 4 4 3 6 1 1 4 3 7 4 5 7 5 12 9 5 6 2 4 5 3 6 12 5 4 5 4 8 19 4 6 17 17 13 14 11 9 10
1 3 4 7 3 1 4 3 5 6 4 5 5 5 5 3 4 5 6 4 6 10 7 6 2 6 8 4 4 8 4 4 5 9 10 6 6 19 15 17 16 19 15 12 12
5 4 3 6 2 4 3 4 4 5 5 4 4 3 4 5 5 5 1 4 3 7 8 4 7 8 6 3 6 5 3 2 3 5 5 4 7 4 23 21 24 21 16 17 15
4 2 6 6 3 4 3 5 5 5 6 7 4 2 3 4 4 4 6 5 4 7 9 5 3 2 12 3 8 5 6 7 5 6 4 5 6 7 16 18 23 22 16 13 8
5 0 9 8 3 3 4 3 2 3 4 5 4 6 5 4 3 2 3 5 4 6 5 5 4 5 8 9 7 4 7 8 1 5 4 3 17 19 13 21 18 18 14 9 9
2 2 6 5 1 5 6 5 6 2 6 3 3 5 4 3 3 1 5 7 5 6 6 7 2 5 4 4 4 2 3 3 8 4 15 11 12 15 22 22 20 19 9 10 12
2 1 2 4 4 10 8 6 4 5 4 4 3 1 3 2 3 2 3 4 6 3 3 2 4 6 5 10 14 15 13 14 14 10 16 17 26 21 22 25 20 11 11 11 12
3 2 1 2 4 6 5 3 7 3 2 1 3 3 3 2 4 5 1 5 4 7 2 3 6 9 11 14 16 18 19 18 17 18 18 24 25 24 18 19 15 14 13 14 18
3 1 3 3 2 6 2 3 4 4 1 5 2 4 1 3 3 6 9 7 6 4 1 2 4 9 12 16 16 18 18 19 19 20 21 20 22 18 14 16 16 13 14 15 18
5 1 3 1 1 4 2 5 5 3 3 3 2 2 5 4 7 7 8 8 9 8 7 5 3 5 4 7 17 14 4 6 13 16 13 16 18 15 14 16 17 17 18 18 14

GFSSW_925_spd_030.txt.gz
Wind_Speed
6 7 8 10 11 10 10 8 6 4 3 2 1 3 5 6 1 1 1 2 3 6 7 8 3 3 2 3 1 3 4 2 4 2 5 4 6 3 4 4 5 5 2 7 10
5 6 7 7 8 8 8 6 4 3 2 1 3 5 6 5 1 1 3 2 3 5 4 7 4 5 2 1 1 4 3 7 5 1 4 4 1 5 6 9 5 6 10 11 11
4 5 5 5 6 6 6 5 3 3 1 1 3 6 5 3 1 1 2 2 3 3 3 7 6 1 1 3 3 4 5 4 4 4 3 4 5 1 3 7 6 5 8 8 4
4 4 4 4 5 5 5 4 3 2 1 2 4 5 3 2 4 2 2 3 2 5 6 5 2 0 2 3 2 1 7 5 5 3 5 5 5 5 6 10 7 8 6 6 7
3 4 5 5 5 4 4 4 3 2 0 2 4 5 2 2 1 2 2 3 5 8 4 3 4 2 1 2 5 4 3 4 7 10 6 3 9 4 9 11 10 8 7 10 10
3 4 4 4 4 4 3 3 2 1 0 2 4 3 1 2 1 3 3 4 4 6 8 6 2 2 3 2 0 4 4 9 8 7 5 4 4 4 8 5 9 3 19 15 16
3 4 4 4 3 3 3 2 2 1 1 2 3 2 1 3 1 2 2 3 5 5 2 4 3 4 3 4 4 5 6 8 5 4 3 2 4 5 8 3 6 15 13 15 17
4 4 4 4 3 3 3 2 2 2 1 1 2 2 1 1 1 1 3 5 3 3 3 2 3 1 1 3 7 4 4 4 5 9 5 3 7 7 10 7 11 14 9 14 17
4 4 4 4 3 3 2 2 2 2 1 0 2 1 1 1 1 2 2 2 5 4 4 4 1 1 4 3 5 6 2 2 9 5 5 2 7 7 11 5 14 11 10 13 13
4 3 3 3 3 2 1 2 2 2 2 2 1 3 1 2 1 1 1 3 2 4 3 2 4 3 4 4 2 3 3 4 4 6 8 7 6 15 16 16 13 9 8 11 12
4 4 3 3 2 3 6 3 3 4 2 2 1 3 2 1 2 2 3 4 1 3 1 2 4 3 6 5 4 2 2 5 5 3 5 3 6 10 10 14 12 9 8 8 9
4 5 4 3 4 5 3 3 1 2 5 2 2 2 1 1 3 4 7 2 2 2 2 4 3 4 5 1 1 2 3 5 5 5 3 4 6 6 7 6 7 7 7 7 5
6 5 6 7 7 5 6 3 1 0 4 2 2 1 1 2 1 3 3 1 2 2 1 4 3 3 2 4 4 3 3 2 5 6 2 1 3 5 4 8 8 7 5 4 5
6 6 9 8 4 5 2 1 0 0 4 3 1 2 1 1 2 1 3 1 3 1 5 3 2 4 2 1 2 4 1 2 5 5 3 5 4 5 5 6 6 6 5 4 5
6 9 8 3 1 3 1 1 1 1 2 1 1 1 1 1 1 2 7 4 2 2 4 5 1 2 1 1 1 6 3 5 4 5 2 3 2 3 5 5 5 6 6 5 3
7 9 5 2 3 3 0 1 2 5 2 1 1 2 1 3 1 2 6 8 2 3 2 5 4 3 1 2 3 5 4 4 4 3 0 5 5 4 1 3 2 4 6 6 4
8 7 2 1 2 1 2 2 5 4 1 1 1 3 2 3 2 3 4 7 4 5 7 7 3 1 4 4 5 10 6 4 3 3 6 3 1 1 6 4 2 4 8 8 7
7 6 5 5 1 1 2 4 2 2 2 2 2 1 3 4 3 5 3 4 7 5 3 3 3 5 6 2 1 2 3 4 4 3 5 8 4 4 7 6 2 2 6 8 9
4 3 2 4 1 2 5 4 4 1 2 3 3 2 1 1 3 5 4 2 4 5 3 3 4 4 4 2 2 3 3 2 0 2 1 3 2 6 5 3 2 6 7 8 7
2 2 4 3 1 3 5 3 2 2 3 1 1 1 2 4 2 3 1 3 2 3 0 1 4 2 4 3 5 3 1 3 3 3 5 5 4 5 7 4 5 9 6 6 7
2 3 1 1 1 5 4 2 2 3 2 3 1 2 2 2 1 2 1 1 1 3 4 3 3 5 3 4 2 5 3 4 2 4 4 4 6 6 7 3 10 11 12 11 4
3 3 2 2 4 2 2 2 2 4 6 5 4 3 2 1 2 3 3 1 1 1 2 1 3 4 4 6 5 2 2 4 4 5 2 3 8 8 5 13 15 14 10 8 6
3 1 4 1 3 2 2 3 3 4 4 4 2 2 0 2 2 2 3 2 3 2 5 2 1 3 2 5 4 3 2 4 2 3 6 3 7 5 16 22 16 7 8 7 8
3 2 4 4 1 7 4 2 2 2 2 3 1 2 2 1 2 3 3 4 3 2 6 4 2 5 6 3 1 5 3 2 4 2 5 15 26 27 18 18 10 7 8 8 8
4 1 2 2 4 4 3 4 3 2 1 2 2 1 2 2 0 2 3 2 1 4 3 3 3 3 6 8 6 12 11 11 11 11 8 17 13 20 19 10 7 8 10 12 13
3 3 3 1 2 4 5 2 5 2 3 2 3 5 2 4 4 5 4 3 3 2 5 1 2 2 6 6 8 12 11 12 12 14 15 22 27 12 9 5 8 9 13 19 21
4 2 4 4 2 3 2 2 3 7 1 1 4 4 3 3 3 2 1 1 3 6 4 4 2 2 5 5 8 9 7 8 5 6 6 9 15 5 9 7 11 19 19 20 18

GFSSW_925_spd_033.txt.gz
Wind_Speed
7 8 9 11 12 13 12 12 10 7 4 4 4 6 7 6 3 1 1 2 4 8 8 8 5 5 2 3 3 3 4 2 4 4 4 4 6 2 3 3 5 3 1 6 14
8 8 9 10 10 11 11 9 7 5 2 3 5 6 7 5 1 1 4 3 5 7 6 9 4 8 3 2 3 4 3 6 4 2 3 4 2 5 6 8 3 5 6 18 5
5 4 7 7 8 8 7 7 5 3 2 3 4 6 6 2 1 2 4 3 4 6 5 6 5 2 2 2 0 2 4 3 2 3 2 3 5 3 5 8 6 7 10 14 12
6 7 6 6 6 6 5 4 3 2 1 3 4 5 3 1 3 4 4 4 6 7 5 4 3 3 2 1 2 3 5 3 4 2 5 3 4 5 2 8 9 9 10 17 18
5 6 5 6 6 5 4 4 3 1 1 3 5 4 1 2 1 4 4 5 4 6 6 4 4 2 1 3 5 2 3 5 7 11 6 3 3 4 7 17 17 19 22 18 16
4 5 5 5 4 4 4 3 2 2 2 3 4 2 1 2 2 4 5 6 7 7 7 5 2 1 0 1 0 3 4 8 6 8 2 3 2 2 10 10 16 19 17 16 18
5 5 5 4 4 4 4 3 2 2 2 2 3 2 2 2 1 2 4 5 6 5 2 2 1 2 1 3 3 3 6 7 3 6 3 2 3 7 9 15 16 15 14 15 18
5 5 5 5 4 4 4 3 2 2 2 1 2 2 1 1 2 2 4 4 2 3 2 2 2 2 1 3 6 4 4 4 3 9 5 3 5 14 17 16 13 11 9 12 12
5 5 5 4 4 4 3 2 1 1 1 0 2 1 2 2 1 2 3 2 5 2 2 3 3 3 5 3 5 6 1 1 9 4 4 6 4 13 12 17 12 9 8 9 9
6 5 5 4 3 2 2 2 4 4 3 3 2 3 2 1 2 2 2 3 2 4 4 5 5 3 4 4 3 3 3 2 4 6 7 8 5 6 7 14 8 7 7 7 8
6 6 5 4 4 3 6 5 3 4 2 2 1 2 1 1 2 3 4 3 2 5 3 3 5 2 6 4 3 2 2 4 5 1 4 7 6 4 4 8 8 7 7 7 7
7 7 6 5 5 6 3 4 2 2 5 2 1 2 1 1 2 4 7 3 4 1 1 5 2 4 3 2 1 1 3 5 4 2 3 6 5 4 4 3 4 5 5 5 4
7 6 6 8 8 5 5 4 2 1 5 2 2 1 1 2 1 4 4 1 3 1 3 3 2 3 2 2 4 3 4 2 5 4 5 8 3 3 1 3 3 3 2 1 1
6 7 10 9 5 5 3 2 1 0 4 3 1 1 2 2 3 2 6 2 4 1 1 2 3 2 2 0 2 3 2 2 4 5 2 3 4 6 4 2 2 3 3 3 2
7 11 9 2 6 3 2 1 1 0 2 1 0 0 1 3 2 4 13 4 2 2 4 2 3 3 2 1 2 6 4 5 2 3 3 2 3 3 7 3 1 5 6 5 6
9 9 5 4 4 3 1 1 2 5 3 1 2 2 2 4 2 2 7 9 1 3 4 2 4 2 1 0 2 6 3 5 4 3 1 4 4 5 5 6 2 2 6 6 7
9 6 3 3 2 1 2 3 4 4 2 1 1 2 3 2 3 4 5 7 4 3 5 6 2 4 4 3 4 10 7 4 4 3 5 2 1 3 6 6 6 2 6 8 8
7 6 6 3 1 2 2 4 2 2 1 2 2 2 2 2 4 4 3 3 5 4 3 1 2 5 7 3 2 3 3 4 4 3 5 5 5 2 6 6 4 3 6 7 8
5 5 3 3 2 2 5 3 3 1 1 2 2 2 0 1 3 4 3 2 1 2 3 3 3 5 3 3 2 0 2 2 0 1 1 4 4 2 4 4 2 7 7 8 8
4 2 3 2 2 3 5 3 1 1 2 1 4 1 6 2 2 3 3 2 3 3 2 2 3 1 5 1 3 2 3 1 3 3 5 5 5 5 11 7 6 7 8 8 7
3 3 2 1 1 5 3 4 3 2 1 2 2 2 2 2 1 1 2 2 2 3 4 1 3 3 2 2 1 4 1 4 3 3 4 4 6 5 10 7 4 7 8 6 6
4 3 4 3 4 2 3 1 1 2 5 3 3 2 2 1 3 2 3 1 1 1 2 1 4 4 6 4 3 2 2 3 4 3 1 3 8 3 10 9 5 7 4 6 6
3 1 2 3 3 1 1 3 2 2 3 2 2 2 1 3 1 2 3 1 2 2 5 4 1 2 3 4 3 2 2 4 5 3 6 4 6 5 5 9 9 6 7 7 8
3 2 4 4 1 6 4 2 2 2 2 3 2 2 2 2 2 4 3 3 2 2 5 3 3 5 6 3 2 4 4 4 5 3 3 11 16 23 16 13 17 14 7 9 11
4 1 2 1 4 4 3 3 3 1 2 2 2 0 3 4 3 4 3 3 1 4 2 3 5 4 5 7 4 7 12 9 10 7 8 13 8 18 13 16 14 7 9 13 16
4 4 3 2 1 2 3 3 5 2 3 1 2 3 2 3 5 6 5 4 5 2 5 0 2 3 5 4 2 8 12 11 16 15 16 22 26 20 16 6 7 9 13 18 21
3 3 4 3 2 3 2 3 4 5 0 0 3 4 2 3 3 2 2 2 3 8 6 5 4 2 5 5 7 9 9 13 5 5 9 10 15 5 5 6 8 13 14 19 19

GFSSW_925_spd_036.txt.gz
Wind_Speed
7 7 8 9 11 12 12 13 13 11 8 6 7 8 9 8 3 2 3 4 6 9 7 6 6 7 4 3 4 3 4 0 2 3 3 4 6 3 1 2 4 5 9 14 19
8 8 9 10 11 11 11 11 9 8 5 5 7 8 9 8 2 4 6 4 7 8 5 10 5 8 4 3 3 5 3 3 3 2 3 5 3 5 4 7 7 5 18 26 23
7 7 8 9 9 9 8 7 5 4 4 4 6 8 8 4 2 2 6 6 6 8 6 4 2 2 4 3 4 2 3 3 1 3 3 4 6 4 6 6 7 5 8 16 23
6 7 8 8 6 5 5 4 4 2 2 4 6 6 5 2 3 5 6 6 6 6 6 5 5 3 3 2 3 2 1 2 4 2 5 5 5 8 11 1 3 6 5 15 17
7 7 8 6 4 4 4 3 2 1 2 4 5 5 1 3 1 5 6 6 5 4 8 3 4 2 2 2 4 1 3 5 5 7 4 3 9 9 9 5 6 13 18 16 17
7 7 5 3 4 4 3 2 2 1 2 4 5 2 1 3 2 3 5 7 9 7 8 6 3 2 3 1 1 2 4 7 4 6 5 3 7 6 7 6 12 14 13 11 16
6 5 4 4 4 3 3 2 1 1 2 3 3 1 2 2 3 4 5 5 6 7 3 4 3 3 2 2 3 2 6 5 5 5 3 3 7 9 2 3 12 11 9 11 14
5 5 6 5 4 3 2 1 1 1 1 2 2 1 1 2 3 4 4 4 4 4 5 4 4 4 3 1 6 4 5 3 3 8 5 3 2 7 5 7 9 9 8 8 10
5 5 5 4 3 2 2 2 1 1 1 2 2 2 1 2 2 4 5 3 3 4 4 3 4 3 4 4 5 7 1 2 6 5 2 7 2 5 6 5 8 7 7 7 7
6 6 5 4 3 3 3 2 3 4 3 3 2 3 3 1 2 3 3 4 4 2 4 6 5 3 4 4 3 1 1 2 4 5 9 7 4 2 4 5 6 5 6 6 6
6 5 4 4 3 3 6 5 4 4 3 2 1 3 0 1 2 4 5 2 3 7 3 4 5 2 4 3 2 2 1 3 4 1 6 3 5 2 1 3 5 4 4 5 5
6 6 5 5 5 6 4 3 2 2 5 1 1 2 1 1 2 7 6 3 4 2 1 5 1 2 2 2 2 1 2 4 3 3 5 4 3 2 1 1 1 2 2 3 3
5 5 5 6 7 4 3 4 2 2 5 1 0 2 1 2 2 5 4 1 3 2 3 3 1 1 1 2 3 2 3 2 3 4 5 6 2 5 2 2 1 2 3 4 4
5 5 8 9 4 5 3 2 2 1 4 3 1 1 2 3 4 3 7 2 4 2 1 1 4 1 2 1 3 3 2 1 2 1 3 4 5 5 5 4 2 4 5 7 7
7 10 8 3 6 3 2 1 1 1 2 2 0 0 1 4 4 4 11 5 3 2 4 1 3 4 2 0 2 6 2 2 1 4 2 2 2 5 6 4 3 4 5 6 7
11 9 6 4 3 3 1 2 1 5 3 1 2 1 3 4 3 3 7 9 1 3 3 2 3 1 1 1 1 4 2 5 4 3 1 2 4 4 6 7 4 1 5 6 7
10 6 3 3 2 2 2 3 5 3 2 0 1 2 2 3 4 5 5 7 3 2 3 5 2 5 3 2 4 8 6 4 5 4 5 1 0 7 7 8 7 3 4 7 8
7 6 6 5 2 2 2 5 1 2 2 2 2 2 2 3 3 4 3 2 4 3 3 2 3 4 6 2 1 4 4 4 4 3 5 4 6 5 7 8 7 3 4 7 8
7 5 3 5 3 1 5 3 3 1 1 1 2 2 0 0 4 4 2 2 0 2 2 3 4 4 3 2 2 1 4 3 2 1 1 3 6 3 3 6 5 3 5 7 7
5 3 4 3 2 3 4 3 2 1 0 1 5 1 4 1 1 2 1 0 1 3 2 3 2 1 4 1 5 3 4 2 3 3 5 5 6 5 10 11 7 5 6 7 6
3 3 2 1 1 5 3 4 2 2 0 0 4 2 1 2 2 2 3 2 1 1 2 2 2 2 1 3 2 3 1 4 3 4 4 3 6 5 14 14 8 7 7 7 7
4 3 7 3 4 2 2 1 2 2 5 3 3 2 3 3 2 2 5 0 1 2 2 2 3 3 3 1 2 1 2 4 4 4 1 3 8 4 8 10 8 6 6 6 7
3 1 6 1 2 1 2 3 3 2 3 2 2 1 1 3 1 2 3 1 2 2 3 3 1 3 4 4 3 2 3 4 5 3 6 5 6 3 1 3 6 6 7 7 6
3 2 4 4 1 6 4 1 1 2 2 3 2 1 2 1 3 4 3 1 2 3 7 3 2 5 6 3 1 4 4 4 5 3 4 9 13 12 7 8 8 9 7 8 8
4 1 1 0 2 4 3 4 4 3 1 1 1 1 3 3 1 2 2 2 3 2 3 3 2 2 4 6 4 6 10 8 10 6 7 18 7 20 7 7 8 6 7 9 10
3 4 3 2 2 2 1 4 6 2 4 2 3 3 2 4 5 6 5 4 5 2 3 2 2 2 5 2 1 6 14 14 17 15 14 21 25 20 12 2 5 7 8 12 15
3 3 4 2 1 2 2 4 4 5 1 1 3 4 2 3 3 1 2 3 4 8 6 5 4 2 5 4 7 7 8 12 5 6 7 8 10 2 1 4 5 6 9 14 14

GFSSW_925_spd_039.txt.gz
Wind_Speed
5 7 7 9 9 9 11 11 11 11 8 7 6 7 9 8 3 3 4 5 7 10 6 3 5 6 5 4 4 2 3 1 1 2 1 3 6 4 3 5 6 7 8 13 18
6 6 7 7 8 10 11 11 10 7 6 5 5 7 8 7 3 8 6 6 7 8 5 7 4 6 4 3 3 4 3 2 2 2 1 3 4 6 4 9 7 6 18 19 16
7 7 7 7 9 10 9 8 6 4 3 3 5 6 7 3 2 2 7 6 6 7 4 4 3 3 4 3 4 1 2 2 1 2 2 2 4 7 2 7 7 9 14 17 20
5 6 7 8 8 8 6 5 3 2 2 3 5 6 3 1 3 4 6 6 6 5 3 4 4 3 3 2 2 2 2 0 3 3 4 2 5 7 11 4 4 6 7 15 20
6 7 7 6 7 5 4 4 3 1 1 3 5 5 1 3 3 2 5 6 4 3 8 3 4 2 3 2 2 2 2 3 5 5 10 15 13 9 9 7 7 10 15 15 18
8 7 6 7 5 4 4 3 2 1 1 3 4 2 1 4 1 3 5 7 9 7 8 7 3 2 4 2 2 0 2 5 3 4 5 11 4 4 7 6 9 11 14 14 17
7 5 8 6 4 4 3 3 2 1 1 2 3 2 3 3 2 3 5 5 7 7 4 5 3 3 3 3 2 1 3 2 6 6 5 5 7 6 5 5 11 11 10 11 14
8 10 9 4 5 4 4 3 2 1 0 2 2 1 2 1 3 6 4 5 5 7 7 4 5 5 3 2 5 3 4 1 4 7 1 7 1 3 3 4 9 8 8 9 12
9 9 5 6 6 5 4 3 2 2 2 2 2 2 2 2 2 5 6 3 4 5 6 4 4 3 3 3 3 6 0 1 2 6 2 7 3 2 2 4 7 5 5 7 8
7 5 6 6 5 4 4 3 4 4 4 3 3 3 3 0 2 2 3 3 5 3 4 6 4 3 3 3 2 1 0 2 2 4 7 5 5 5 4 6 5 3 4 4 5
6 6 6 6 5 5 6 5 3 4 5 3 2 4 1 0 2 4 4 1 2 7 3 3 4 0 2 3 3 4 2 2 2 2 3 2 6 8 6 4 5 3 2 2 3
6 6 6 6 5 6 5 3 3 3 5 2 1 2 1 1 3 7 5 3 3 2 1 4 1 2 4 3 3 2 1 3 1 3 1 3 5 7 8 4 4 4 2 1 2
6 6 6 6 7 5 3 4 3 2 5 2 1 2 1 2 2 5 4 2 3 3 2 4 3 3 3 2 2 1 2 2 1 2 3 4 4 8 6 4 5 5 4 4 4
7 7 8 9 4 5 2 3 2 1 4 2 1 1 2 3 4 3 6 2 3 3 4 1 2 3 2 2 3 1 2 1 2 1 2 1 5 5 8 8 7 6 5 6 6
9 10 9 3 6 2 2 2 1 1 2 2 0 1 2 3 4 4 8 4 3 2 2 1 2 3 2 2 2 2 2 1 1 2 1 2 3 1 8 10 10 7 3 4 6
12 10 7 4 3 3 2 2 1 5 3 1 1 1 3 4 3 5 5 8 0 3 3 1 2 2 1 2 2 1 3 4 3 2 1 2 5 4 7 10 10 5 3 3 5
11 7 4 3 2 2 3 3 4 3 2 0 1 2 2 3 4 5 5 6 2 2 1 4 2 3 3 2 2 6 3 2 1 0 2 3 4 8 6 6 12 10 3 4 6
8 7 8 6 3 2 2 4 1 2 2 0 1 2 3 2 2 4 2 2 5 4 2 3 2 2 4 2 2 2 1 3 4 3 3 3 5 2 3 9 9 7 2 4 6
9 6 3 5 3 1 5 3 4 3 1 3 2 2 0 1 3 3 2 2 1 3 2 3 2 2 4 2 1 2 2 1 4 1 1 2 5 4 5 7 7 7 3 5 7
5 4 4 4 3 2 4 3 3 1 0 1 5 1 4 2 2 2 1 1 3 1 1 3 1 1 2 1 4 1 4 1 1 1 3 3 6 6 10 16 13 11 8 6 7
3 3 3 1 2 5 3 3 2 1 1 1 4 3 1 2 2 2 3 1 1 2 1 2 1 0 1 1 4 2 1 4 3 1 3 3 6 5 11 16 18 14 8 7 8
4 2 7 3 4 1 3 1 2 1 5 2 3 2 3 3 2 2 3 1 1 2 2 0 3 3 2 2 1 0 2 3 3 4 1 1 8 2 6 8 10 13 8 7 9
3 1 6 2 3 1 2 1 2 2 2 2 2 2 1 3 1 2 2 2 1 2 4 4 0 2 1 1 2 3 3 4 5 2 7 3 6 1 0 2 9 9 8 8 8
3 2 4 4 1 5 4 2 2 2 2 3 3 2 2 2 3 4 3 1 1 1 5 2 2 4 5 1 1 3 4 5 4 3 5 10 19 15 4 7 10 11 10 9 10
4 1 1 1 2 4 3 2 3 2 2 1 2 1 3 2 1 2 2 1 2 4 2 2 3 2 4 6 3 6 10 9 11 6 8 17 8 20 7 9 11 8 7 9 12
3 4 3 2 1 3 1 4 5 2 3 1 2 2 2 3 5 6 5 4 5 1 2 2 1 1 4 2 2 6 14 13 17 14 14 22 25 24 16 3 5 7 8 11 13
3 3 4 2 1 3 2 4 5 6 1 2 2 4 2 3 2 1 2 3 4 7 4 3 3 2 5 4 6 6 13 12 7 7 9 10 11 2 3 5 7 6 9 11 11